Ely, MN

8:16 AM CST on December 12, 2017 (GMT -0600)
Ely Municipal

Weather History for KELO - June, 2013

Change the Weather History Date:

Wednesday, June 5, 2013

  Actual Average Record
Temperature  
Mean Temperature 48 °F -  
Max Temperature 55 °F 66 °F 78 °F (2012)
Min Temperature 42 °F 43 °F 32 °F (1998)
Degree Days  
Heating Degree Days 16    
Moisture  
Dew Point 38 °F    
Average Humidity 65    
Maximum Humidity 87    
Minimum Humidity 40    
Precipitation  
Precipitation 0.00 in - - ()
Sea Level Pressure  
Sea Level Pressure 30.11 in    
Wind  
Wind Speed 3 mph (East)    
Max Wind Speed 16 mph    
Max Gust Speed 24 mph    
Visibility 10 miles    
Events Rain    
Averages and records for this station are not official NWS values.
T = Trace of Precipitation, MM = Missing Value Source: NWS Daily Summary

Daily Weather History Graph

Daily Weather History Graph

Search for Another Location

Airport or City:

Trip Planner

Search our weather history database for the weather conditions in past years. The results will help you decide how hot, cold, wet, or windy it might be!

Date:

Astronomy

Jun. 05, 2013 Rise Set
Actual Time 5:10 AM CDT 9:01 PM CDT
Civil Twilight 4:30 AM CDT 9:41 PM CDT
Nautical Twilight 3:35 AM CDT 10:37 PM CDT
Astronomical Twilight 2:13 AM CDT 12:00 AM CDT
Moon 3:26 AM CDT (6/5) 6:19 PM CDT (6/5)
Length of Visible Light 17h 11m
Length of Day
15h 51m
Waning Crescent, 8% of the Moon is Illuminated
Jun 5
Waning Crescent
Jun 8
New
Jun 16
First Quarter
Jun 23
Full
Jun 29
Last Quarter

Hourly Weather History & Observations

Time (CDT) Temp. Windchill Dew Point Humidity Pressure Visibility Wind Dir Wind Speed Gust Speed Precip Events Conditions
12:13 AM 50.0 °F - 26.6 °F 40% 30.13 in 10.0 mi Calm Calm - N/A   Overcast
12:32 AM 48.2 °F - 26.6 °F 43% 30.13 in 10.0 mi Calm Calm - N/A   Mostly Cloudy
12:53 AM 46.4 °F - 30.2 °F 53% 30.13 in 10.0 mi Calm Calm - N/A   Clear
1:13 AM 44.6 °F - 30.2 °F 57% 30.13 in 10.0 mi Calm Calm - N/A   Clear
1:32 AM 44.6 °F - 32.0 °F 61% 30.12 in 10.0 mi Calm Calm - N/A   Clear
1:53 AM 46.4 °F - 32.0 °F 57% 30.12 in 10.0 mi Calm Calm - N/A   Clear
2:13 AM 44.6 °F - 32.0 °F 61% 30.11 in 10.0 mi Calm Calm - N/A   Clear
2:32 AM 46.4 °F - 30.2 °F 53% 30.11 in 10.0 mi Calm Calm - N/A   Mostly Cloudy
2:53 AM 46.4 °F - 30.2 °F 53% 30.11 in 10.0 mi Calm Calm - N/A   Mostly Cloudy
3:13 AM 46.4 °F - 30.2 °F 53% 30.11 in 10.0 mi Calm Calm - N/A   Scattered Clouds
3:33 AM 46.4 °F - 30.2 °F 53% 30.11 in 10.0 mi Calm Calm - N/A   Scattered Clouds
3:53 AM 44.6 °F - 33.8 °F 66% 30.11 in 10.0 mi Calm Calm - N/A   Scattered Clouds
4:12 AM 44.6 °F - 33.8 °F 66% 30.11 in 10.0 mi Calm Calm - N/A   Mostly Cloudy
4:33 AM 42.8 °F - 35.6 °F 76% 30.11 in 10.0 mi Calm Calm - N/A   Overcast
4:52 AM 46.4 °F - 30.2 °F 53% 30.12 in 10.0 mi Calm Calm - N/A   Overcast
5:13 AM 44.6 °F - 33.8 °F 66% 30.12 in 10.0 mi Calm Calm - N/A   Overcast
5:33 AM 44.6 °F - 35.6 °F 71% 30.12 in 10.0 mi Calm Calm - N/A   Overcast
5:52 AM 44.6 °F - 35.6 °F 71% 30.12 in 10.0 mi Calm Calm - N/A   Overcast
6:13 AM 44.6 °F - 35.6 °F 71% 30.12 in 10.0 mi Calm Calm - N/A   Overcast
6:33 AM 46.4 °F 45.2 °F 35.6 °F 66% 30.13 in 10.0 mi East 3.5 mph - N/A   Overcast
6:52 AM 48.2 °F - 35.6 °F 62% 30.13 in 10.0 mi East 4.6 mph - N/A   Overcast
7:13 AM 48.2 °F - 35.6 °F 62% 30.13 in 10.0 mi East 4.6 mph - N/A   Overcast
7:33 AM 48.2 °F - 37.4 °F 66% 30.12 in 10.0 mi East 6.9 mph - N/A   Overcast
7:52 AM 48.2 °F - 37.4 °F 66% 30.12 in 10.0 mi East 6.9 mph - N/A   Overcast
8:13 AM 50.0 °F - 39.2 °F 66% 30.12 in 10.0 mi East 6.9 mph - N/A   Overcast
8:33 AM 50.0 °F - 39.2 °F 66% 30.11 in 10.0 mi East 8.1 mph - N/A   Overcast
8:52 AM 50.0 °F - 39.2 °F 66% 30.11 in 10.0 mi East 4.6 mph - N/A   Overcast
9:13 AM 51.8 °F - 41.0 °F 67% 30.11 in 10.0 mi East 8.1 mph - N/A   Overcast
9:33 AM 51.8 °F - 42.8 °F 71% 30.12 in 10.0 mi East 6.9 mph - N/A   Mostly Cloudy
9:52 AM 51.8 °F - 42.8 °F 71% 30.12 in 10.0 mi East 11.5 mph - N/A Rain Light Rain
10:13 AM 51.8 °F - 44.6 °F 76% 30.11 in 10.0 mi East 9.2 mph - N/A Rain Light Rain
10:33 AM 53.6 °F - 42.8 °F 67% 30.11 in 10.0 mi ESE 9.2 mph - N/A   Overcast
10:52 AM 53.6 °F - 44.6 °F 72% 30.11 in 10.0 mi East 12.7 mph 20.7 mph N/A   Overcast
11:13 AM 51.8 °F - 44.6 °F 76% 30.12 in 10.0 mi ESE 12.7 mph - N/A   Overcast
11:33 AM 51.8 °F - 44.6 °F 76% 30.12 in 10.0 mi SE 16.1 mph 24.2 mph N/A   Overcast
11:52 AM 51.8 °F - 44.6 °F 76% 30.12 in 10.0 mi ESE 16.1 mph 21.9 mph N/A Rain Light Rain
12:13 PM 48.2 °F - 44.6 °F 87% 30.12 in 10.0 mi East 12.7 mph 16.1 mph N/A Rain Light Rain
12:33 PM 50.0 °F - 44.6 °F 82% 30.12 in 10.0 mi East 9.2 mph - N/A Rain Light Rain
12:52 PM 51.8 °F - 44.6 °F 76% 30.13 in 10.0 mi ESE 8.1 mph 16.1 mph N/A   Overcast
1:13 PM 50.0 °F - 42.8 °F 76% 30.12 in 10.0 mi East 9.2 mph 18.4 mph N/A Rain Light Rain
1:32 PM 51.8 °F - 44.6 °F 76% 30.12 in 10.0 mi ENE 10.4 mph - N/A   Overcast
1:53 PM 51.8 °F - 42.8 °F 71% 30.12 in 10.0 mi East 11.5 mph 17.3 mph N/A   Overcast
2:13 PM 50.0 °F - 42.8 °F 76% 30.12 in 10.0 mi ENE 9.2 mph - N/A   Overcast
2:32 PM 50.0 °F - 42.8 °F 76% 30.12 in 10.0 mi ENE 6.9 mph - N/A   Overcast
2:53 PM 51.8 °F - 42.8 °F 71% 30.11 in 10.0 mi ENE 5.8 mph - N/A   Overcast
3:13 PM 51.8 °F - 42.8 °F 71% 30.11 in 10.0 mi NE 4.6 mph - N/A   Overcast
3:32 PM 51.8 °F - 42.8 °F 71% 30.11 in 10.0 mi NE 6.9 mph - N/A   Overcast
3:53 PM 51.8 °F - 44.6 °F 76% 30.11 in 10.0 mi ENE 3.5 mph - N/A   Overcast
4:13 PM 51.8 °F - 42.8 °F 71% 30.10 in 10.0 mi NE 5.8 mph - N/A   Overcast
4:33 PM 51.8 °F - 42.8 °F 71% 30.10 in 10.0 mi NE 5.8 mph - N/A   Overcast
4:53 PM 51.8 °F - 42.8 °F 71% 30.10 in 10.0 mi NE 4.6 mph - N/A   Overcast
5:13 PM 53.6 °F - 42.8 °F 67% 30.10 in 10.0 mi East 6.9 mph - N/A   Overcast
5:33 PM 53.6 °F - 39.2 °F 58% 30.10 in 10.0 mi East 6.9 mph - N/A   Overcast
5:52 PM 55.4 °F - 39.2 °F 54% 30.09 in 10.0 mi East 6.9 mph - N/A   Overcast
6:13 PM 53.6 °F - 37.4 °F 54% 30.09 in 10.0 mi East 6.9 mph - N/A   Overcast
6:33 PM 55.4 °F - 37.4 °F 51% 30.08 in 10.0 mi East 8.1 mph - N/A   Overcast
6:52 PM 55.4 °F - 37.4 °F 51% 30.08 in 10.0 mi East 9.2 mph - N/A   Overcast
7:13 PM 55.4 °F - 35.6 °F 47% 30.08 in 10.0 mi East 6.9 mph - N/A   Overcast
7:32 PM 55.4 °F - 35.6 °F 47% 30.08 in 10.0 mi East 5.8 mph - N/A   Overcast
7:53 PM 55.4 °F - 35.6 °F 47% 30.07 in 10.0 mi East 5.8 mph - N/A   Overcast
8:13 PM 53.6 °F - 35.6 °F 51% 30.07 in 10.0 mi East 5.8 mph - N/A   Overcast
8:33 PM 53.6 °F - 35.6 °F 51% 30.07 in 10.0 mi East 3.5 mph - N/A   Overcast
8:53 PM 53.6 °F - 35.6 °F 51% 30.07 in 10.0 mi Calm Calm - N/A   Overcast
9:12 PM 53.6 °F - 35.6 °F 51% 30.07 in 10.0 mi Calm Calm - N/A   Overcast
9:33 PM 51.8 °F - 39.2 °F 62% 30.08 in 10.0 mi Calm Calm - N/A   Overcast
9:53 PM 48.2 °F - 41.0 °F 76% 30.08 in 10.0 mi Calm Calm - N/A   Overcast
10:13 PM 48.2 °F - 41.0 °F 76% 30.09 in 10.0 mi Calm Calm - N/A   Mostly Cloudy
10:33 PM 46.4 °F - 39.2 °F 76% 30.09 in 10.0 mi Calm Calm - N/A   Scattered Clouds
10:53 PM 48.2 °F - 39.2 °F 71% 30.09 in 10.0 mi East 3.5 mph - N/A   Mostly Cloudy
11:13 PM 50.0 °F - 37.4 °F 62% 30.09 in 10.0 mi Calm Calm - N/A   Overcast
11:33 PM 50.0 °F - 37.4 °F 62% 30.08 in 10.0 mi East 3.5 mph - N/A   Overcast
11:53 PM 48.2 °F - 37.4 °F 66% 30.08 in 10.0 mi East 3.5 mph - N/A   Overcast